Miscellaneous Local Product
Issued by NWS Hastings, NE

Home | Current Version | Previous Version | Text Only | Print | Product List | Glossary On
Versions: 1 2 3 4 5 6 7 8 9 10 11 12 13 14 15 16 17 18 19 20 21 22 23 24 25 26 27 28 29 30 31 32 33 34 35 36 37 38 39 40 41 42 43 44 45 46 47 48 49 50
000
AXUS43 KGID 290002
MISGRI

GID CWA HOURLY WEATHER ROUNDUP
NATIONAL WEATHER SERVICE HASTINGS NE
700 PM CDT SAT MAR 28 2015

NOTE: "FAIR" INDICATES FEW OR NO CLOUDS BELOW 12,000 FEET WITH NO
SIGNIFICANT WEATHER AND/OR OBSTRUCTIONS TO VISIBILITY.

...SOUTH CENTRAL NEBRASKA...

CITY           SKY/WX    TMP DP  RH WIND       PRES   REMARKS
GRAND ISLAND   CLEAR     60  34  37 SE16G24   29.93F
HASTINGS       CLEAR     62  34  35 S14G24    29.93S
KEARNEY        CLEAR     64  34  32 S17G24    29.90F
ORD            CLEAR     63  33  32 SE16G28   29.86F
YORK           CLEAR     55  34  44 S17       29.96F
AURORA         CLEAR     58  34  39 SE17      29.94F
LEXINGTON      SUNNY     68  35  29 SE22      29.85F
HOLDREGE       SUNNY     65  33  30 S20G25    29.89F
HEBRON         CLEAR     60  30  33 SE14      29.97F

...NEBRASKA PANHANDLE...

CITY           SKY/WX    TMP DP  RH WIND       PRES   REMARKS
CHADRON        SUNNY     81  28  14 W18G24    29.65F
ALLIANCE       SUNNY     79  32  18 W18G24    29.74F
SCOTTSBLUFF    SUNNY     77  27  15 W12       29.75F
SIDNEY         MOSUNNY   78  24  13 NW18G26   29.81F

...WESTERN AND NORTH CENTRAL NEBRASKA...

CITY           SKY/WX    TMP DP  RH WIND       PRES   REMARKS
VALENTINE      SUNNY     77  33  20 S21G31    29.67F
AINSWORTH      SUNNY     69  34  27 S23G33    29.73F
ONEILL         CLEAR     60  34  38 S21G28    29.84F
BROKEN BOW     SUNNY     68  36  30 S17G25    29.83F
IMPERIAL         N/A     81  21  11 W15G26    29.79F
NORTH PLATTE   SUNNY     74  35  24 SE16      29.78F
MCCOOK         SUNNY     78  34  20 SE20G29   29.81F

...EASTERN NEBRASKA...

CITY           SKY/WX    TMP DP  RH WIND       PRES   REMARKS
NORFOLK        CLEAR     54  33  45 S18G28    29.94F
SO SIOUX CITY  CLEAR     53  28  38 S15G24    29.98F
TEKAMAH        CLEAR     54  29  38 SE30G44   30.01F
COLUMBUS       CLEAR     54  34  47 S17       29.98F
ALBION         CLEAR     56  32  40 S17       29.92F
OMAHA EPPLEY   CLEAR     53  30  41 S22       30.03F
OFFUTT AFB     CLEAR     52  31  44 S14       30.03F
MILLARD        CLEAR     53  32  45 SE14      30.03S
LINCOLN        CLEAR     54  34  46 SE18      30.02F
NEBRASKA CITY  CLEAR     51  29  43 S14G23    30.05F
BEATRICE       CLEAR     55  34  44 SE14      30.01F
FALLS CITY     CLEAR     52  31  44 SE14      30.07S

...NORTHERN KANSAS...

CITY           SKY/WX    TMP DP  RH WIND       PRES   REMARKS
GOODLAND       SUNNY     79  20  11 W9        29.87F
HILL CITY      SUNNY     74  37  26 SE16G22   29.89F
NORTON         CLEAR     70  30  23 SE14G24   29.86F
PHILLIPSBURG   SUNNY     72  36  26 SE14      29.91F
SMITH CENTER   CLEAR     64  36  34 SE17      29.94F
BELOIT         CLEAR     64  36  34 SE14      29.96S
HAYS           SUNNY     72  39  30 SE17      29.94S
RUSSELL        CLEAR     69  40  34 SE16      29.94R
CONCORDIA      CLEAR     61  36  39 SE17      29.97F
SALINA         CLEAR     66  37  34 SE16      29.98S
TOPEKA         CLEAR     54  33  45 SE15      30.09R



USA.gov is the U.S. government's official web portal to all federal, state and local government web resources and services.